Regional Weather Roundup
Issued by NWS Sioux Falls, SD

Home | Current Version | Previous Version | Text Only | Print | Product List | Glossary On
Versions: 1 2 3 4 5 6 7 8 9 10 11 12 13 14 15 16 17 18 19 20 21 22 23 24 25 26 27 28 29 30 31 32 33 34 35 36 37 38 39 40 41 42 43 44 45 46 47 48 49 50
000
ASUS43 KFSD 051510
RWRFSD

WEATHER ROUNDUP FOR SE SOUTH DAKOTA/SW MINNESOTA/NW IOWA
NATIONAL WEATHER SERVICE SIOUX FALLS SD
900 AM CST THU MAR 05 2015

NOTE: "FAIR" INDICATES FEW OR NO CLOUDS BELOW 12,000 FEET WITH NO
SIGNIFICANT WEATHER AND OR OBSTRUCTIONS TO VISIBILITY.


SDZ038>040-050-052>070-051600-
SOUTHEAST SOUTH DAKOTA

CITY           SKY/WX    TMP DP  RH WIND       PRES   REMARKS
CHAMBERLAIN    MOSUNNY    2  -3  79 SE3       30.34S
HURON          MOSUNNY    0  -9  65 S13       30.40S WCI -18
MADISON        FAIR      -2  -8  78 S8        30.39F WCI -17
MITCHELL       SUNNY      5  -2  72 S12       30.43S WCI -11
SIOUX FALLS    SUNNY      2  -6  69 S8        30.46R WCI -12
WINNER         FAIR      12   0  58 S15       30.29S WCI  -4
YANKTON        SUNNY      3   0  85 SE6       30.49S WCI  -8
$$

MNZ071-072-080-081-089-090-097-098-051600-
SOUTHWEST MINNESOTA

CITY           SKY/WX    TMP DP  RH WIND       PRES   REMARKS
FAIRMONT       SUNNY      1  -8  66 W5        30.50R WCI  -8
JACKSON        SUNNY      1  -9  60 W3        30.47R
LUVERNE        SUNNY      0  -6  78 S3        30.48R
MARSHALL       SUNNY      1  -9  60 SW6       30.48R WCI -10
MONTEVIDEO     MOSUNNY    1  -6  71 SW5       30.49R WCI  -8
PIPESTONE      MOSUNNY   -4  -8  84 SW5       30.41S WCI -15
REDWOOD FALLS  SUNNY     -2 -10  69 SW6       30.50R WCI -14
TRACY          MOSUNNY    1  -8  66 SW8       30.46S WCI -14
WINDOM         SUNNY      0  -9  65 CALM      30.47R
WORTHINGTON    SUNNY      0  -9  65 SW7       30.47R WCI -13
$$

IAZ001>003-012>014-020>022-031-032-NEZ013-014-SDZ071-051600-
NORTHWEST IOWA

CITY           SKY/WX    TMP DP  RH WIND       PRES   REMARKS
CHEROKEE       SUNNY     -1  -6  79 CALM      30.53S
DENISON        SUNNY      3  -6  66 CALM      30.53R
ESTHERVILLE    SUNNY      0  -7  72 W5        30.50R WCI -10
LE MARS        SUNNY      5  -2  72 S6        30.53S WCI  -6
ORANGE CITY    SUNNY      3  -6  66 S5        30.49R WCI  -6
SHELDON        SUNNY      1  -9  60 S6        30.48S WCI -10
SIOUX CITY     SUNNY      6  -1  73 SE6       30.54R WCI  -4
SPENCER        SUNNY      0  -7  72 CALM      30.50R
STORM LAKE     SUNNY      1  -9  60 SW5       30.51R WCI  -8
$$

ABBREVIATIONS USED IN REMARKS
   TC - TEMPERATURE IN CELSIUS
  WCI - WIND CHILL INDEX
   HX - HEAT INDEX
  VSB - VISIBILITY



USA.gov is the U.S. government's official web portal to all federal, state and local government web resources and services.